RH
87 74 61 56 54 60 57 56 55 57 55 57 60 58 60 59 57 58 58 58 58 58 58 58 56 57 57 55 55 52 45 46
93 88 77 75 72 61 57 57 55 53 54 59 65 65 61 58 57 57 57 58 58 58 59 58 57 58 56 55 55 56 48 48
95 93 86 74 68 63 61 56 57 58 60 61 71 77 71 66 55 57 58 58 58 59 59 58 58 60 58 59 59 53 52 50
94 92 89 60 50 67 66 58 68 68 66 68 71 77 67 61 60 60 60 63 61 62 61 60 60 58 59 61 57 57 55 54
68 71 78 57 62 69 71 72 74 71 67 69 71 71 77 77 76 73 74 68 66 66 68 60 65 61 58 58 59 60 60 58
64 64 60 62 67 68 70 69 72 73 70 70 73 78 78 78 76 75 75 78 75 76 76 66 64 60 59 61 62 61 60 60
67 65 66 62 60 68 71 71 71 73 72 71 73 75 78 77 75 76 77 79 81 75 74 71 65 61 60 63 64 61 60 60
71 68 67 59 60 64 70 70 73 73 73 71 71 76 77 77 76 77 79 81 81 78 76 74 71 64 62 65 65 62 59 56
69 67 65 60 58 63 69 72 69 71 71 69 71 73 73 76 77 79 81 83 79 78 72 70 65 60 64 67 66 65 60 54
62 51 63 65 65 65 67 74 74 72 72 72 69 72 71 77 78 81 80 82 81 80 76 72 67 68 69 68 72 66 63 56
66 62 63 62 70 73 70 72 72 72 73 72 70 73 71 79 80 82 80 83 84 80 77 79 78 75 68 65 74 69 66 57
60 61 56 55 62 64 69 73 72 73 74 72 70 75 74 80 82 80 78 83 84 81 78 77 79 84 72 67 78 74 61 66
55 55 58 57 59 57 64 65 69 69 70 74 75 77 78 81 80 78 80 86 86 82 83 80 82 86 81 72 73 70 67 55
55 54 55 55 56 64 63 66 69 68 74 78 77 76 76 70 80 80 84 86 86 87 87 90 85 86 91 82 74 64 62 61
54 55 51 52 59 62 64 64 67 65 69 76 79 75 75 76 77 84 89 89 89 88 91 91 96 88 89 87 84 78 79 68
54 51 48 51 61 64 63 67 67 69 72 80 78 73 75 76 80 87 89 89 87 91 79 91 95 94 77 80 90 93 93 83
60 48 51 58 61 64 68 66 66 71 76 74 73 78 75 75 83 87 87 88 89 86 82 86 92 93 92 85 87 90 90 92
50 51 57 58 60 61 59 58 63 68 69 73 74 77 79 77 79 85 83 85 91 85 82 85 91 95 93 94 95 95 88 92
53 59 61 62 61 62 56 60 62 65 69 68 68 75 75 76 83 83 82 86 88 82 82 86 94 98 97 96 93 90 94 91
62 56 62 59 59 54 55 60 66 69 66 66 69 72 77 75 80 81 79 84 87 82 86 92 94 98 96 95 91 87 94 94
Wind_Speed
6 6 10 13 12 14 13 15 15 15 14 14 14 15 15 16 16 15 16 16 17 18 18 19 19 17 17 17 17 17 8 6
6 6 6 6 5 13 13 15 15 14 14 14 15 15 16 16 16 15 16 16 17 18 19 20 19 18 18 17 16 15 8 6
6 6 5 5 6 9 11 14 14 14 12 15 10 4 6 9 14 16 15 17 18 19 20 20 20 18 19 18 17 5 6 5
5 6 6 5 7 7 6 7 4 4 5 6 4 5 5 9 13 17 17 17 18 20 20 19 15 6 6 12 5 7 5 6
5 6 6 7 6 4 3 3 3 3 6 5 5 4 4 4 3 4 4 12 5 8 7 6 8 7 6 6 7 7 5 5
6 6 7 6 4 4 4 3 3 3 4 5 4 3 4 4 3 4 4 3 5 4 3 6 7 8 8 8 8 6 5 4
6 7 7 6 6 4 4 4 3 3 3 4 4 4 4 3 4 4 4 4 4 5 5 5 7 8 7 8 8 8 8 5
7 6 6 6 5 5 4 4 4 3 3 3 4 3 3 3 4 4 4 4 4 4 5 5 5 6 7 7 7 6 6 7
8 7 6 6 6 5 4 4 4 3 2 3 3 3 4 4 4 4 3 3 5 4 5 5 6 7 7 6 5 6 6 7
6 6 6 6 5 4 4 4 3 2 1 2 3 4 4 4 4 4 4 4 4 4 5 6 6 7 6 4 4 5 5 6
7 6 6 6 5 4 5 5 3 2 2 3 4 4 5 4 4 4 5 4 4 5 4 3 5 8 8 4 4 3 4 6
7 6 6 6 5 5 4 4 3 3 3 3 4 4 5 5 4 5 5 3 4 4 4 3 3 5 8 6 3 2 3 5
6 7 4 3 2 3 3 4 2 3 4 6 6 5 6 5 4 5 4 4 3 4 4 4 3 4 4 4 2 3 2 6
7 7 5 3 3 2 3 4 3 3 3 5 5 5 5 5 5 4 5 3 5 5 4 3 3 2 3 2 5 4 2 3
7 6 6 4 5 4 4 4 3 3 3 3 4 5 6 5 5 4 4 3 3 4 3 4 3 3 4 0 3 3 6 2
7 6 7 6 6 6 6 3 2 2 1 2 3 5 5 5 4 4 4 3 4 4 4 2 2 5 4 1 4 4 3 6
7 8 8 6 7 7 5 5 3 1 2 4 4 3 5 4 4 4 4 3 4 4 5 5 2 3 4 5 4 2 3 5
7 9 7 6 7 6 6 6 3 3 4 4 3 3 3 4 3 4 4 4 4 4 5 5 4 3 3 3 4 3 3 4
7 7 7 6 7 6 5 5 5 4 2 2 4 3 3 4 4 4 3 4 4 5 6 5 4 3 4 4 4 6 5 4
7 7 6 6 6 5 4 4 3 2 2 2 2 2 3 4 3 4 5 5 5 6 5 4 4 4 6 4 5 6 5 3
Wind_Direction
109 100 109 105 86 94 76 66 60 57 49 50 46 46 38 38 26 29 30 22 22 15 14 12 8 1 359 356 356 355 358 332
116 96 90 76 47 100 84 73 64 55 56 55 53 47 46 32 36 25 30 21 21 15 15 11 9 1 355 353 355 352 337 326
122 116 110 101 72 98 79 79 73 63 53 64 50 36 45 23 31 29 28 26 21 20 17 12 9 360 356 353 355 330 329 326
133 144 139 109 94 87 85 86 78 66 63 61 51 36 43 44 31 34 25 33 26 24 18 13 3 348 343 347 331 327 328 324
141 144 138 113 111 106 96 91 86 63 61 61 51 48 34 25 21 14 9 25 20 18 11 4 350 348 343 337 331 336 328 320
131 127 122 121 115 129 126 122 103 79 65 61 58 47 35 26 24 12 18 5 16 10 359 352 348 347 344 338 339 342 335 332
145 132 134 135 127 128 131 108 99 101 74 63 61 62 51 29 17 24 18 7 16 11 359 354 346 347 342 339 340 344 348 355
140 146 145 136 121 131 134 117 113 92 68 59 62 77 65 49 27 26 17 15 7 7 356 342 333 339 340 338 337 344 352 5
145 142 142 128 124 134 134 134 113 100 80 42 54 57 54 50 36 31 9 7 11 4 2 340 345 344 338 334 340 345 355 10
146 126 121 122 137 126 128 119 110 110 75 21 30 51 43 42 37 28 5 17 7 358 3 348 348 347 331 327 338 349 355 14
118 114 117 107 106 104 101 116 98 72 30 20 21 32 37 52 35 22 18 16 15 2 347 351 341 344 328 324 325 342 359 14
110 102 108 95 88 91 77 83 56 40 7 20 24 29 36 43 36 26 11 15 14 358 334 330 306 321 315 316 296 260 354 9
101 107 99 98 84 98 85 83 67 39 27 32 47 46 43 42 31 18 2 18 5 354 328 331 310 329 313 321 312 294 293 340
94 94 93 84 90 106 118 118 86 82 47 47 49 53 39 47 28 358 3 21 0 355 0 317 300 346 326 289 343 330 312 346
107 100 85 72 90 88 69 69 57 39 25 31 24 40 43 37 17 18 30 22 352 332 330 336 318 307 326 274 340 311 322 308
102 93 88 77 73 72 68 76 87 46 48 45 34 33 32 24 15 39 23 360 350 334 339 315 324 316 321 219 253 263 311 319
94 91 77 62 64 79 84 71 58 63 53 50 17 7 28 11 20 16 10 350 337 327 332 328 295 293 325 317 293 243 244 267
97 91 78 72 76 73 80 89 70 53 29 22 354 339 345 357 5 7 354 334 321 315 312 310 307 297 296 285 286 294 289 274
107 107 92 85 81 66 70 82 77 77 51 7 2 340 330 328 353 355 337 312 315 319 320 316 310 307 309 302 293 289 280 281
107 99 98 86 79 72 62 73 72 51 27 350 349 317 295 320 335 339 327 322 318 319 314 308 311 313 304 286 298 290 291 275